{"data":{"norad_id":48483,"epoch":"2026-05-25T03:49:02.889408Z","epoch_age_seconds":61049,"freshness":"FRESH","line1":"1 48483U 21040BH  26145.15906122  .00000757  00000+0  36163-4 0  9999","line2":"2 48483  53.1596 198.4266 0001229  79.6793 280.4346 15.31698596278174","mean_motion":15.31698596,"eccentricity":0.0001229,"inclination_deg":53.1596,"raan_deg":198.4266,"arg_perigee_deg":79.6793,"mean_anomaly_deg":280.4346,"bstar":3.6163e-5,"rev_number":27817,"period_min":94.013274136343,"perigee_km":469.9024529827,"apogee_km":471.58590797687,"semimajor_km":6848.8811804798,"source":"CELESTRAK","updated_at":"2026-05-25T13:38:16.723408Z"}}